Tracking 18852 objects as of 23-Nov-2017
HD Live streaming from Space Station
objects crossing your sky now

COSMOS 1056

Track COSMOS 1056 now!
10-day predictions
COSMOS 1056 is classified as:


NORAD ID: 11133
Int'l Code: 1978-109F
Perigee: 1,478.4 km
Apogee: 1,511.3 km
Inclination: 74.0 °
Period: 115.7 minutes
Semi major axis: 7865 km
RCS: 0.7294 m2 (medium)
Launch date: December 5, 1978
Source: Commonwealth of Independent States (former USSR) (CIS)
Launch site: PLESETSK MISSILE AND SPACE COMPLEX (PKMTR)
aabbcc
Your satellite tracking list
Your tracking list is empty




NASA's NSSDC Master Catalog

Two Line Element Set (TLE):
1 11133U 78109F   17326.53245133 -.00000014 +00000-0 +10020-4 0  9992
2 11133 074.0169 346.0500 0020946 285.4074 188.0016 12.44471782770117
Source of the keplerian elements: AFSPC